This is the latest recevied weather packets stored in our database for station/object SQ3VAS-10. If no packets are shown the sender has not sent any weather packets the latest 10 day(s).
| Time | Temp. | Humidity | Pressure | Rain* | Wind** | Luminosity | Snow |
|---|---|---|---|---|---|---|---|
| 1777547477 | 20.56° C | 33% | 1030.3 hPa | - | - | - | - |
| 1777546899 | 20.56° C | 32% | 1030.4 hPa | - | - | - | - |
| 1777546327 | 20.56° C | 32% | 1030.6 hPa | - | - | - | - |
| 1777545754 | 21.11° C | 31% | 1030.4 hPa | - | - | - | - |
| 1777545183 | 20.56° C | 32% | 1030.6 hPa | - | - | - | - |
| 1777544605 | 22.22° C | 32% | 1030.5 hPa | - | - | - | - |
| 1777544032 | 20.56° C | 34% | 1030.7 hPa | - | - | - | - |
| 1777543456 | 20.56° C | 33% | 1030.7 hPa | - | - | - | - |
| 1777542882 | 17.78° C | 38% | 1031 hPa | - | - | - | - |
| 1777542308 | 18.33° C | 37% | 1030.7 hPa | - | - | - | - |
| 1777541735 | 17.22° C | 39% | 1031.2 hPa | - | - | - | - |
| 1777541159 | 16.11° C | 40% | 1031.4 hPa | - | - | - | - |
| 1777540584 | 15.56° C | 40% | 1031.4 hPa | - | - | - | - |
| 1777540010 | 16.11° C | 40% | 1031.3 hPa | - | - | - | - |
| 1777539439 | 15.56° C | 40% | 1031.3 hPa | - | - | - | - |
| 1777538861 | 16.11° C | 40% | 1031.4 hPa | - | - | - | - |
| 1777538289 | 15.56° C | 41% | 1031.4 hPa | - | - | - | - |
| 1777537715 | 15° C | 40% | 1031.7 hPa | - | - | - | - |
| 1777537144 | 15° C | 40% | 1031.8 hPa | - | - | - | - |
| 1777536568 | 13.89° C | 42% | 1031.4 hPa | - | - | - | - |
| 1777535992 | 13.89° C | 41% | 1031.8 hPa | - | - | - | - |
| 1777535419 | 13.33° C | 41% | 1031.9 hPa | - | - | - | - |
| 1777534845 | 12.78° C | 40% | 1031.9 hPa | - | - | - | - |
| 1777534271 | 12.22° C | 40% | 1032.1 hPa | - | - | - | - |
| 1777533699 | 11.67° C | 41% | 1032.1 hPa | - | - | - | - |
* Rain since midnight (hover to see other rain measurements)
** Current wind speed in m/s (hover to see current wind gust speed)